Regional Weather Roundup
Issued by NWS Jackson, KY

Home | Current Version | Previous Version | Text Only | Print | Product List | Glossary On
Versions: 1 2 3 4 5 6 7 8 9 10 11 12 13 14 15 16 17 18 19 20 21 22 23 24 25 26 27 28 29 30 31 32 33 34 35 36 37 38 39 40 41 42 43 44 45 46 47 48 49 50
000
ASUS43 KJKL 201611
RWRJKL

EAST KENTUCKY HOURLY WEATHER ROUNDUP
NATIONAL WEATHER SERVICE JACKSON KY
1200 PM EDT SUN APR 20 2014

NOTE: "FAIR" INDICATES FEW OR NO CLOUDS BELOW 12,000 FEET WITH
NO SIGNIFICANT WEATHER AND/OR OBSTRUCTIONS TO VISIBILITY.

* THESE REPORTS ARE NOT UNDER NWS QUALITY CONTROL AND MAY NOT
  REPORT WEATHER SUCH AS PRECIPITATION AND FOG.

KYZ079-080-083-085-087-088-110-112-115-119-120-201700
...EASTERN KENTUCKY...

CITY           SKY/WX    TMP DP  RH WIND       PRES   REMARKS
JACKSON        SUNNY     68  37  32 SE7       30.26F
LONDON         SUNNY     69  40  34 VRB3      30.25F
SOMERSET*      SUNNY     68  37  32 CALM      30.25F
MONTICELLO*    SUNNY     72  43  35 CALM      30.25F
WILLIAMSBURG*  SUNNY     66  41  39 CALM      30.25F
MIDDLESBORO*   SUNNY     68  39  34 S5        30.26F
HARLAN APT*    SUNNY     68  36  30 CALM      30.26F
BLACK MTN*       N/A     59  30  33 NE5         N/A
PIKEVILLE APT* SUNNY     64  32  29 CALM      30.27F
BIG SANDY*     SUNNY     69  39  33 NE7       30.27F
MOREHEAD APT*  SUNNY     70  37  30 SW3       30.27F
$$

KYZ035-036-041-042-044-050-067-078-099-201700
...CENTRAL KENTUCKY...

CITY           SKY/WX    TMP DP  RH WIND       PRES   REMARKS
MT STERLING*   SUNNY     68  41  37 CALM      30.26F
FLEMING/MASON* SUNNY     68  43  40 SE8       30.26F
DANVILLE*      SUNNY     68  43  40 S5        30.25F
LEXINGTON      SUNNY     68  41  37 CALM      30.24F
FRANKFORT      SUNNY     68  42  38 CALM      30.23F
$$

KYZ091>093-OHZ055-061-077-WVZ005-015-034-035-042-201700
...SOUTHERN OHIO/WEST VIRGINIA...

CITY           SKY/WX    TMP DP  RH WIND       PRES   REMARKS
COVINGTON      MOSUNNY   68  37  32 CALM      30.24F
COLUMBUS       PTSUNNY   67  36  31 VRB7      30.27F
DAYTON         PTSUNNY   65  35  33 CALM      30.26F
WILMINGTON     SUNNY     65  37  35 SE5       30.25F
HUNTINGTON     SUNNY     67  36  31 SE7       30.27F
CHARLESTON     MOSUNNY   69  30  23 VRB5      30.28F
PINEVILLE*     SUNNY     67  33  28 MISG      30.33F
BECKLEY        SUNNY     59  29  31 SE12      30.32S
BLUEFIELD      SUNNY     61  25  25 E8G16     30.32F
$$

VAZ002-007-008-TNZ017-027-036-066-071-201700
...SOUTHWEST VIRGINIA/EAST TENNESSEE...

CITY           SKY/WX    TMP DP  RH WIND       PRES   REMARKS
WISE*          SUNNY     61  27  27 CALM      30.30S
ABINGDON*      SUNNY     62  30  30 NE6       30.28F
BRISTOL        MOSUNNY   64  31  28 CALM      30.27F
KNOXVILLE      MOSUNNY   65  46  50 NE6       30.25
OAK RIDGE      SUNNY     67  42  40 CALM      30.27S
CROSSVILLE     SUNNY     67  39  35 NE5       30.26F
NASHVILLE      MOSUNNY   73  43  33 S3        30.23F
$$

...KEY TO REMARKS...
VSB - VISIBILITY IN MILES
WCI - WIND CHILL INDEX
HX  - HEAT INDEX

$$



USA.gov is the U.S. government's official web portal to all federal, state and local government web resources and services.